Portada
METAR-TAF:

METAR-TAF

Aeroports :

Stigler, Oklahoma, Estats Units d'Amèrica

latitud: 35-17-17N, longitud: 095-05-38W, altitud: 183 m

Observació

L'informe es va fer fa 23 minuts, a les 09:55 UTC
Vent 5 kt del Est/Nord-Est
Temperatura 13°C
Humitat 54%
Pressió 1021 hPa
Visibilitat: 16.1 km
Escasses núvols a una alçada de 12000 ft

METAR: KGZL 300955Z AUTO 06005KT 10SM FEW120 13/04 A3016 RMK AO2

Hora: 05:18 (10:18 UTC)


TAF: manca

Observacions i pronòstics meteorològics de més de 4000 aeroports (METAR i TAF).

Les estacions disponibles són els punts grocs i vermells al mapa.

Posi el ratolí al punt desitjat per veure el nom de l'estació.

Feu clic per veure les observacions i els pronòstics meteorològics.

Per canviar el mapa: feu clic els botons verds amb una creu de color negre per apropar; al botó verd amb un guió per allunyar la imatge; o en les fletxes verdes per a mapes adjacents.


METAR-TAF: